Tracking 17264 objects as of 1-September-2015
HD Live streaming from Space Station

KMS 3-2

Track KMS 3-2 now!
10-day predictions
KMS 3-2 is classified as:


NORAD ID: 39026
Int'l Code: 2012-072A
Perigee: 479.8 km
Apogee: 541.0 km
Inclination: 97.3 °
Period: 94.7 minutes
Semi major axis: 6881 km
RCS: 0.4897 m2 (medium)
Launch date: December 12, 2012
Source: North Korea (NKOR)

KWANGMYONGSONG 3 is a North Korean Earth observation satellite, which according to the DPRK is designed for weather forecast purposes, and whose launch is widely portrayed in the West to be a veiled ballistic missile test.
Your satellite tracking list
Your tracking list is empty





NASA's NSSDC Master Catalog

Two Line Element Set (TLE):
1 39026U 12072A   15243.36879667  .00002983  00000-0  13470-3 0  9999
2 39026 097.2782 272.3809 0044456 333.6176 026.2796 15.20862697150138

Source of the keplerian elements: AFSPC

N2YO: 268